Location: Lango�lan
(48.1202°N, 3.2340°W)
Time: 17:13:43
(UTC+00:00)

COSMOS 2441 - Pass Details

Date: 23 October 2019
Orbit: 708 x 731 km, 98.0° (Epoch: 20 November)

Event Time Altitude Azimuth Distance (km) Brightness Sun altitude
Rises 04:33:30 0° 13° (NNE) 3,168 8.0 -22.3°
Reaches altitude 10° 04:35:47 10° 13° (NNE) 2,239 7.1 -22.0°
Maximum altitude 04:40:43 88° 284° (WNW) 735 4.3 -21.1°
Drops below altitude 10° 04:45:36 10° 196° (SSW) 2,211 6.7 -20.3°
Enters shadow 04:45:39 10° 196° (SSW) 2,233 6.7 -20.3°
